Hurghada, Egypt

10:49 AM EET on August 27, 2016 (GMT +0200)
Hurghada International

Weather History for HEGN - October, 2013

Change the Weather History Date:

Thursday, October 3, 2013

  Actual Average Record
Temperature  
Mean Temperature 82 °F -  
Max Temperature 92 °F 84 °F 100 °F (2005)
Min Temperature 72 °F 70 °F 69 °F (2015)
Cooling Degree Days 17    
Growing Degree Days 32 (Base 50)    
Moisture  
Dew Point 58 °F    
Average Humidity 42    
Maximum Humidity 78    
Minimum Humidity 24    
Precipitation  
Precipitation 0.00 in - - ()
Sea Level Pressure  
Sea Level Pressure 29.83 in    
Wind  
Wind Speed 10 mph ()    
Max Wind Speed 23 mph    
Max Gust Speed -    
Visibility 4.7 miles    
Events      
Averages and records for this station are not official NWS values.
T = Trace of Precipitation, MM = Missing Value Source: Averaged Metar Reports

Daily Weather History Graph

Daily Weather History Graph

Search for Another Location

Airport or City:

Trip Planner

Search our weather history database for the weather conditions in past years. The results will help you decide how hot, cold, wet, or windy it might be!

Date:

Astronomy

Oct. 03, 2013 Rise Set
Actual Time 5:38 AM EET 5:28 PM EET
Civil Twilight 5:15 AM EET 5:52 PM EET
Nautical Twilight 4:48 AM EET 6:19 PM EET
Astronomical Twilight 4:21 AM EET 6:46 PM EET
Moon 3:57 AM EET (10/3) 4:22 PM EET (10/3)
Length of Visible Light 12h 37m
Length of Day
11h 50m
Waning Crescent, 3% of the Moon is Illuminated
Oct 3
Waning Crescent
Oct 5
New
Oct 12
First Quarter
Oct 19
Full
Oct 27
Last Quarter

Hourly Weather History & Observations

Time (EET) Temp. Heat Index Dew Point Humidity Pressure Visibility Wind Dir Wind Speed Gust Speed Precip Events Conditions
12:00 AM 75.2 °F - 51.8 °F 44% 29.80 in - Calm Calm - N/A   Clear
1:00 AM 75.2 °F - 51.8 °F 44% 29.80 in - Calm Calm - N/A   Clear
2:00 AM 75 °F - 48 °F 28% 29.81 in 6 mi Calm Calm - -  
2:00 AM 75.2 °F - 48.2 °F 38% 29.80 in - Calm Calm - N/A   Clear
3:00 AM 73.4 °F - 48.2 °F 41% 29.80 in - WNW 4.6 mph - N/A   Clear
4:00 AM 73.4 °F - 46.4 °F 38% 29.80 in - WNW 9.2 mph - N/A   Clear
5:00 AM 75.2 °F - 59.0 °F 57% 29.83 in - SW 17.3 mph - N/A   Clear
6:00 AM 75.2 °F - 68.0 °F 78% 29.83 in - WNW 13.8 mph - N/A   Clear
7:00 AM 75.2 °F - 53.6 °F 47% 29.86 in - WNW 13.8 mph - N/A   Clear
8:00 AM 81 °F - 64 °F 47% 29.87 in 6 mi NW 17.3 mph - -  
8:00 AM 80.6 °F 82.3 °F 64.4 °F 58% 29.86 in - NW 17.3 mph - N/A   Clear
9:00 AM 84.2 °F 85.6 °F 64.4 °F 51% 29.86 in - North 18.4 mph - N/A   Clear
10:00 AM 87.8 °F 90.4 °F 66.2 °F 49% 29.86 in 5.0 mi North 20.7 mph - N/A   Unknown
11:00 AM 89.6 °F 92.2 °F 66.2 °F 46% 29.86 in 3.7 mi North 23.0 mph - N/A   Unknown
12:00 PM 89.6 °F 93.4 °F 68.0 °F 49% 29.83 in 3.7 mi North 23.0 mph - N/A   Unknown
1:00 PM 89.6 °F 90.1 °F 62.6 °F 40% 29.83 in 3.7 mi North 17.3 mph - N/A   Unknown
2:00 PM 91 °F - 59 °F 24% 29.83 in 4 mi North 20.7 mph - -   Blowing Sand
2:00 PM 91.4 °F 90.7 °F 59.0 °F 34% 29.80 in 3.7 mi North 20.7 mph - N/A   Unknown
3:00 PM 91.4 °F 89.9 °F 57.2 °F 31% 29.80 in 5.0 mi North 16.1 mph - N/A   Unknown
4:00 PM 91.4 °F 89.9 °F 57.2 °F 31% 29.80 in - North 15.0 mph - N/A   Clear
5:00 PM 91.4 °F 89.9 °F 57.2 °F 31% 29.80 in - North 11.5 mph - N/A   Clear
6:00 PM 87.8 °F 87.1 °F 59.0 °F 38% 29.80 in - North 12.7 mph - N/A   Clear
7:00 PM 87.8 °F 87.6 °F 60.8 °F 40% 29.83 in - North 12.7 mph - N/A   Clear
8:00 PM 87 °F - 60 °F 30% 29.86 in 6 mi NNW 17.3 mph - -  
8:00 PM 86.0 °F 86.1 °F 60.8 °F 43% 29.86 in - NNW 17.3 mph - N/A   Clear
9:00 PM 84.2 °F 83.5 °F 57.2 °F 40% 29.86 in - NW 12.7 mph - N/A   Clear
10:00 PM 84.2 °F 83.8 °F 59.0 °F 42% 29.86 in - WNW 15.0 mph - N/A   Clear
11:00 PM 82.4 °F 82.5 °F 59.0 °F 45% 29.86 in - WNW 18.4 mph - N/A   Clear